Temperature
18 18 18 18 18 18 18 18 18 18 18 18 18 18 18 18 18 18 18 18 18 17 17 17 17 17 17 17 17 16 16 16 16 16 16 16 16 16 16 16 16 16 16
18 18 18 18 18 18 18 18 18 18 18 18 18 18 18 18 18 18 18 18 17 17 17 17 17 17 17 17 17 17 16 16 16 16 16 16 16 16 16 16 16 16 16
18 18 18 18 18 18 18 18 18 18 18 18 18 18 18 18 18 17 17 17 17 17 17 17 17 17 17 17 17 17 17 17 16 16 16 16 16 16 16 16 16 16 16
18 18 18 18 18 18 18 18 18 18 18 18 18 18 18 18 18 17 17 17 17 17 17 17 17 17 17 17 17 17 17 17 16 16 16 16 16 16 16 16 16 16 15
18 18 18 18 18 18 18 18 18 18 18 18 18 18 18 18 18 18 18 17 17 17 17 17 17 17 17 17 17 17 17 17 16 16 16 16 16 16 16 16 16 15 15
18 18 18 18 18 18 18 18 18 18 18 18 18 18 18 18 18 18 18 18 17 17 17 17 17 17 17 17 17 17 17 16 16 16 16 16 16 16 16 16 16 15 15
18 18 18 18 18 18 18 18 18 18 18 18 18 18 18 18 18 18 18 18 18 17 17 17 17 17 17 17 17 17 17 17 16 16 16 16 16 16 16 16 16 15 15
18 18 18 18 18 18 18 18 18 18 18 18 18 18 18 18 18 18 18 18 18 18 17 17 17 17 17 17 17 17 16 16 16 16 16 16 16 16 16 16 15 15 15
18 18 18 18 18 17 18 18 18 18 18 18 18 18 18 18 18 18 18 18 18 18 17 17 17 17 17 16 16 16 16 16 16 16 16 16 16 16 16 16 15 15 15
18 18 18 18 18 18 17 17 17 17 17 18 18 18 18 18 18 17 18 18 18 17 17 17 17 17 17 16 16 16 16 16 16 16 16 16 16 16 15 15 15 15 15
18 18 18 18 18 17 17 17 17 17 17 17 17 18 18 18 18 17 17 17 17 17 17 17 17 16 16 16 16 16 16 16 16 16 16 16 15 15 15 15 15 15 15
18 18 18 18 18 17 17 17 17 17 17 17 17 17 17 18 18 17 17 17 17 17 17 17 16 16 16 16 16 16 16 16 16 16 15 15 15 15 15 15 15 15 15
18 18 18 18 17 17 17 17 17 17 17 17 17 17 17 17 17 17 17 17 16 16 16 16 16 16 16 16 15 16 15 15 15 15 15 15 15 15 15 15 14 14 14
17 17 17 17 17 17 17 17 17 17 17 17 17 17 17 17 17 17 17 16 16 16 16 16 16 15 15 15 15 15 15 15 15 15 15 15 14 14 14 14 14 14 14
17 17 17 17 17 17 17 17 17 17 17 17 17 17 17 17 17 17 16 16 16 16 16 16 15 15 15 15 15 15 15 14 14 14 14 14 14 14 14 14 13 13 13
17 17 17 17 17 17 17 17 17 16 16 17 16 17 16 16 16 16 16 16 16 16 15 15 15 15 15 14 14 14 14 14 14 14 14 13 13 13 13 13 13 13 13
17 17 17 17 17 17 16 16 16 16 16 16 16 16 16 16 16 16 16 15 15 15 15 15 14 14 14 14 14 14 13 13 13 13 13 13 13 13 13 12 12 12 12
17 17 17 17 16 16 16 16 16 16 16 16 16 16 16 15 15 15 15 15 15 15 15 14 14 13 13 13 13 13 13 13 13 12 12 12 12 12 12 12 12 11 11
17 17 17 16 16 16 16 16 16 16 16 16 15 15 15 15 15 15 15 15 15 15 14 14 13 13 13 13 12 12 12 12 12 12 12 12 11 11 11 11 11 11 11
17 17 17 16 16 16 16 15 15 15 15 15 15 15 15 15 15 15 15 14 14 14 14 14 13 12 12 12 12 12 12 11 11 11 11 11 11 11 10 10 10 10 10
16 16 16 16 16 16 15 15 15 15 15 15 15 15 14 14 14 14 14 14 14 14 13 13 12 12 12 12 12 11 11 11 11 11 10 10 10 10 10 10 10 10 10
16 16 16 16 16 16 15 15 15 14 14 14 14 14 14 14 14 14 13 13 13 13 13 12 12 12 11 11 11 11 11 11 10 10 10 10 10 10 10 10 9 9 9
16 16 16 16 15 15 15 15 14 14 14 14 13 13 13 13 13 13 13 13 12 12 12 12 12 11 11 11 11 11 11 10 10 10 10 9 9 9 9 9 9 9 8
16 15 15 15 15 15 15 14 14 14 13 13 13 13 13 13 12 12 12 12 12 12 11 11 11 11 11 11 11 10 10 10 10 10 10 9 9 9 9 9 9 8 8
15 15 15 15 15 15 14 14 14 13 13 13 13 12 12 12 12 12 12 12 11 11 11 11 11 11 10 10 10 10 10 10 10 10 9 9 9 9 9 9 9 8 8
15 15 14 14 14 14 14 13 13 13 13 12 12 12 12 12 12 11 11 11 11 11 11 11 11 10 10 10 10 10 10 10 10 9 9 9 9 9 9 9 9 8 8
Wind_Speed
2 2 1 1 1 3 4 2 1 1 1 1 0 1 2 4 8 10 11 13 13 12 11 11 10 10 9 9 9 8 8 8 8 8 8 8 7 7 7 7 6 6 6
3 2 0 0 1 2 3 1 1 1 0 0 0 0 1 3 5 9 11 12 12 12 12 11 11 10 10 10 9 9 9 9 9 9 9 9 9 8 8 8 8 8 7
2 1 1 1 1 1 2 2 1 2 2 2 1 1 1 2 4 7 10 11 11 12 12 12 11 11 11 11 10 10 10 9 9 10 10 10 10 9 9 9 9 9 9
1 1 1 1 1 1 2 1 2 1 1 2 2 2 2 3 4 5 7 9 11 11 12 12 12 12 12 11 11 11 11 10 10 10 11 11 11 11 11 11 10 10 10
1 1 1 0 2 2 1 2 1 1 2 2 2 2 3 3 3 5 6 8 10 11 12 13 14 13 12 12 12 12 11 11 11 11 11 12 12 12 12 12 12 12 12
2 1 2 2 3 1 1 1 2 2 2 3 3 3 3 3 3 3 4 5 8 10 12 12 13 13 14 13 13 12 12 11 12 12 12 12 13 13 13 13 13 13 13
2 1 2 1 2 1 2 2 2 3 3 3 1 1 2 2 3 3 3 3 4 7 9 11 12 11 11 14 14 13 13 12 11 11 11 12 12 13 13 14 14 14 14
3 3 2 2 2 2 2 2 2 2 3 2 2 1 1 1 1 3 2 3 2 3 4 7 8 8 8 8 9 11 11 11 10 10 10 10 11 11 11 12 13 14 15
3 2 2 2 2 2 2 3 2 3 3 3 2 2 1 1 1 1 2 2 2 2 2 4 6 6 6 6 6 8 10 10 10 10 9 10 10 12 13 12 12 13 14
2 3 2 3 3 2 2 3 3 3 3 3 3 2 2 2 2 1 1 1 1 1 1 1 3 5 6 6 6 8 9 9 8 8 7 7 8 9 10 11 11 12 12
2 2 2 2 2 3 3 3 2 2 2 3 2 2 2 2 3 3 2 1 0 0 1 1 2 3 4 5 5 6 8 8 7 5 5 5 5 5 6 7 8 9 10
1 1 1 1 2 2 2 3 2 2 3 3 3 2 2 2 2 2 2 2 1 1 1 1 2 3 4 5 5 6 9 8 6 5 3 1 2 2 3 5 6 6 6
1 1 0 0 1 1 2 2 1 2 3 3 3 3 2 3 2 1 1 1 1 1 1 0 2 3 5 6 6 8 8 7 6 5 3 2 2 2 2 2 3 3 3
1 1 1 1 1 1 1 1 1 2 1 2 3 3 3 2 2 1 1 2 1 1 1 0 2 4 6 8 8 8 7 8 7 6 5 4 4 4 5 5 5 5 5
1 2 2 1 2 2 2 1 1 2 1 1 2 2 2 2 1 1 1 2 2 2 2 1 1 3 5 8 9 8 9 10 9 9 8 8 8 8 8 9 8 8 7
3 3 3 2 2 2 2 1 1 2 1 1 1 2 3 2 2 1 1 1 1 1 1 0 1 2 4 6 9 10 11 13 11 11 10 10 10 10 10 10 10 10 10
2 2 2 3 3 3 3 3 2 2 3 3 2 2 2 3 2 2 1 1 0 1 1 1 2 3 4 4 6 8 10 10 10 11 11 11 11 11 11 11 11 11 11
2 2 2 3 3 3 3 3 3 4 4 3 3 3 3 3 3 3 2 2 1 1 3 2 2 2 3 3 5 5 7 9 10 11 12 12 12 11 11 11 11 11 11
3 3 3 3 3 4 3 4 4 4 4 5 5 5 4 4 4 3 3 2 1 1 3 3 3 2 2 2 4 4 5 6 7 9 10 10 11 11 10 10 10 10 11
3 3 3 4 4 4 4 4 4 4 5 5 5 6 6 6 5 5 4 4 3 2 3 4 3 2 2 1 2 3 3 2 3 5 7 8 9 9 9 9 9 9 9
4 4 4 4 4 5 5 5 5 5 5 5 6 6 8 9 10 7 6 5 4 3 3 4 3 2 2 1 1 1 3 3 3 2 2 4 6 6 7 7 7 7 8
5 5 5 5 6 6 8 9 6 5 5 5 5 5 6 8 9 10 11 10 7 5 4 4 3 3 2 1 1 1 1 2 1 1 2 2 4 3 5 5 5 5 5
5 5 6 6 7 8 10 10 9 5 5 6 5 5 5 7 6 5 7 8 8 9 6 4 4 2 2 2 1 1 1 1 1 1 1 1 2 2 5 6 6 5 5
5 5 5 6 6 7 9 9 8 4 5 5 5 5 6 6 7 6 5 6 7 6 6 4 3 3 3 2 1 0 2 2 1 1 1 1 1 2 3 7 7 7 5
5 5 5 5 5 6 8 8 6 3 4 5 6 6 6 6 8 8 5 5 5 4 7 9 7 5 5 5 5 2 1 1 1 1 1 1 0 1 2 3 7 8 7
5 5 4 4 5 6 7 8 7 2 3 4 5 6 9 8 8 8 4 4 3 2 3 4 4 4 5 5 6 4 2 2 1 1 2 2 1 1 0 1 4 7 7
Wind_Direction
102 107 80 111 172 162 159 165 156 129 151 186 236 82 61 90 121 133 144 158 160 165 169 174 177 180 182 185 186 188 189 190 190 190 192 193 194 196 197 197 198 196 194
90 97 129 175 192 138 135 161 168 176 190 307 243 302 93 108 124 135 150 164 170 174 177 182 186 189 191 192 195 197 199 201 202 203 205 207 209 210 208 208 209 210 211
89 131 183 232 227 174 154 176 228 218 202 205 211 209 162 150 143 149 157 165 175 185 190 193 195 197 199 201 202 203 204 207 210 211 212 213 216 218 218 218 218 219 220
134 249 217 227 269 237 186 187 225 244 241 221 202 212 177 172 168 175 173 175 174 181 190 196 198 203 206 209 209 209 211 214 216 218 220 220 221 223 225 227 226 225 226
220 247 267 237 261 267 237 234 180 227 262 267 228 214 209 193 184 197 181 185 182 177 180 193 198 202 209 214 215 216 217 219 221 223 226 227 227 228 229 231 231 231 232
233 262 246 236 262 260 258 249 223 230 244 251 255 226 221 202 196 184 192 192 189 186 184 184 190 204 213 218 219 221 223 223 225 229 231 232 232 232 232 234 234 236 237
232 245 285 255 268 264 252 249 233 238 241 228 247 282 272 241 203 189 198 195 191 189 186 178 182 192 201 217 223 225 226 226 228 232 235 237 237 236 235 236 236 238 240
216 229 226 250 254 259 257 264 248 247 264 240 217 219 270 288 268 229 189 195 206 166 164 171 176 185 191 193 208 218 223 225 227 231 237 240 240 239 239 239 238 239 241
207 241 240 254 265 252 244 253 247 238 245 264 247 198 197 222 299 281 215 209 180 170 156 155 163 175 182 175 185 206 216 221 226 229 234 236 238 241 241 244 245 243 242
216 229 234 242 257 262 251 255 228 240 239 251 259 234 222 188 177 267 294 246 197 182 198 174 151 163 177 167 169 174 195 210 221 225 230 235 238 242 247 248 249 249 246
219 226 229 240 247 256 259 266 278 261 253 254 263 249 237 231 201 205 230 242 247 93 172 152 107 138 164 163 150 151 174 187 199 211 230 240 244 246 253 258 259 255 252
234 226 225 229 243 251 267 264 262 259 259 263 275 276 260 247 229 221 219 208 211 262 225 177 142 130 140 122 132 138 149 159 166 175 193 231 261 267 269 270 272 266 264
42 13 350 281 282 269 269 269 265 261 264 261 268 276 275 270 269 236 201 202 216 262 272 114 91 100 114 106 104 111 128 142 146 143 128 98 56 24 4 353 348 342 337
46 16 22 12 332 309 302 297 299 274 274 273 271 277 278 283 286 266 209 195 216 251 253 199 87 91 91 94 100 103 107 115 112 105 100 87 69 56 47 44 42 37 30
19 41 35 25 6 357 347 15 357 339 355 322 313 315 300 300 301 296 252 215 200 221 241 199 95 94 103 107 109 105 95 92 94 93 89 83 76 69 66 62 58 55 53
32 40 27 28 27 18 13 16 24 4 12 2 348 345 331 326 324 318 264 257 234 215 240 88 83 97 98 96 102 105 99 93 90 89 86 83 81 77 71 66 64 63 63
50 32 21 23 34 35 26 30 34 27 30 23 10 7 348 343 339 334 339 350 39 120 154 72 81 85 92 96 104 107 108 101 95 93 90 86 84 79 75 72 68 66 64
74 56 49 38 37 49 48 49 42 41 37 30 20 15 2 1 8 9 7 19 38 128 147 147 105 90 94 102 113 108 107 106 105 100 96 91 88 84 79 75 72 69 65
79 68 64 59 46 50 54 60 58 48 44 39 34 28 20 19 14 11 22 21 25 91 130 137 129 113 106 109 111 104 102 104 107 107 102 95 90 86 82 79 76 72 67
80 72 66 65 61 57 48 55 69 65 60 55 49 43 37 38 30 22 34 29 49 77 103 113 111 98 78 83 118 123 115 98 100 107 103 106 104 91 83 81 79 76 74
83 76 70 67 62 62 46 49 62 67 62 60 57 59 60 65 60 53 57 44 47 70 88 98 97 83 69 69 100 122 123 119 89 93 116 116 113 98 90 83 81 83 82
81 82 77 73 66 60 46 46 52 64 62 62 64 66 75 70 71 71 70 61 57 65 72 87 87 90 72 46 61 122 125 134 119 120 116 115 123 112 120 114 111 108 100
92 87 83 83 76 56 45 41 44 55 63 56 52 46 54 58 53 64 74 71 62 57 67 89 88 78 74 34 29 85 90 101 140 181 153 155 143 129 134 141 147 141 135
101 92 87 86 85 64 45 41 41 65 72 66 59 53 58 50 40 40 64 71 66 55 62 81 85 77 68 34 359 75 143 145 138 128 138 184 185 175 154 162 175 172 169
105 99 93 90 86 68 43 39 31 77 84 74 69 59 56 53 35 37 65 77 79 82 79 82 87 91 89 67 48 42 45 88 100 68 1 325 193 169 156 162 189 194 195
115 108 100 97 94 81 52 41 30 66 95 93 87 74 62 55 44 36 54 72 65 46 63 87 90 90 90 80 65 48 23 11 34 73 22 357 357 26 88 152 171 189 205
Height
1566 1566 1567 1567 1568 1569 1569 1570 1571 1572 1572 1573 1574 1575 1575 1575 1575 1575 1575 1576 1576 1577 1577 1578 1578 1579 1580 1581 1582 1583 1584 1584 1585 1586 1587 1587 1588 1589 1590 1590 1591 1592 1593
1565 1566 1567 1567 1568 1569 1570 1570 1571 1572 1572 1573 1574 1574 1575 1575 1575 1575 1575 1576 1576 1577 1577 1578 1578 1579 1580 1581 1581 1582 1583 1584 1584 1585 1586 1586 1587 1588 1589 1589 1590 1591 1592
1565 1565 1566 1567 1568 1569 1570 1570 1571 1571 1572 1572 1573 1574 1574 1575 1575 1575 1575 1575 1576 1576 1577 1577 1578 1578 1579 1580 1580 1581 1582 1583 1583 1584 1584 1585 1586 1586 1587 1588 1589 1589 1590
1564 1565 1566 1566 1567 1568 1569 1569 1570 1571 1571 1572 1572 1573 1573 1574 1574 1574 1575 1575 1575 1576 1576 1577 1577 1578 1578 1579 1579 1580 1580 1581 1582 1582 1583 1583 1584 1585 1585 1586 1587 1587 1588
1563 1564 1565 1565 1566 1567 1568 1569 1569 1569 1570 1571 1571 1572 1572 1573 1573 1574 1574 1575 1575 1575 1575 1576 1576 1577 1577 1577 1578 1578 1579 1579 1580 1580 1581 1581 1582 1582 1583 1583 1584 1585 1586
1563 1563 1564 1564 1565 1566 1566 1567 1567 1568 1568 1569 1570 1571 1571 1571 1572 1572 1573 1574 1574 1574 1574 1574 1575 1575 1576 1576 1576 1577 1577 1577 1578 1578 1578 1579 1579 1579 1580 1581 1581 1582 1583
1561 1562 1562 1563 1563 1564 1564 1565 1566 1566 1567 1568 1568 1569 1569 1570 1570 1571 1572 1572 1573 1573 1573 1573 1573 1574 1574 1574 1575 1575 1575 1575 1575 1575 1576 1576 1576 1577 1577 1578 1578 1579 1579
1560 1560 1561 1561 1562 1562 1562 1563 1564 1564 1565 1566 1567 1567 1567 1568 1568 1569 1569 1570 1571 1571 1572 1572 1572 1572 1572 1572 1572 1572 1572 1573 1573 1573 1573 1573 1573 1573 1574 1574 1574 1575 1575
1558 1559 1559 1560 1560 1560 1561 1561 1562 1562 1563 1564 1565 1566 1566 1566 1566 1567 1567 1568 1569 1569 1570 1570 1570 1570 1570 1569 1569 1570 1570 1570 1570 1570 1570 1570 1570 1570 1571 1571 1571 1571 1571
1557 1557 1557 1558 1558 1558 1559 1559 1560 1560 1561 1561 1562 1563 1564 1564 1565 1565 1566 1566 1567 1567 1567 1568 1568 1567 1567 1567 1567 1567 1567 1567 1567 1567 1567 1567 1567 1567 1567 1567 1567 1567 1567
1556 1556 1556 1556 1556 1556 1557 1557 1558 1558 1559 1560 1560 1561 1561 1562 1562 1563 1563 1564 1565 1565 1565 1565 1565 1565 1566 1565 1565 1565 1565 1565 1564 1564 1564 1564 1564 1564 1563 1563 1563 1563 1563
1555 1555 1555 1554 1554 1555 1555 1555 1556 1556 1557 1557 1558 1559 1559 1560 1560 1561 1561 1562 1562 1563 1563 1563 1563 1563 1563 1563 1563 1563 1562 1562 1562 1562 1562 1561 1561 1561 1560 1560 1560 1560 1559
1554 1554 1553 1553 1553 1553 1553 1554 1554 1554 1555 1555 1556 1556 1557 1557 1558 1559 1559 1559 1560 1561 1561 1561 1561 1561 1560 1560 1560 1560 1560 1560 1560 1560 1559 1559 1558 1558 1557 1557 1557 1556 1556
1553 1553 1552 1552 1552 1552 1552 1552 1552 1553 1553 1553 1554 1554 1555 1555 1555 1556 1557 1557 1558 1558 1559 1560 1559 1559 1559 1558 1558 1558 1559 1558 1558 1557 1557 1556 1556 1555 1554 1554 1554 1553 1553
1553 1552 1551 1551 1551 1551 1551 1551 1551 1551 1552 1552 1552 1552 1552 1553 1553 1553 1554 1555 1556 1556 1557 1557 1558 1557 1557 1556 1556 1557 1557 1556 1556 1555 1555 1555 1554 1553 1552 1552 1551 1550 1550
1552 1551 1551 1550 1550 1550 1550 1550 1550 1550 1550 1550 1551 1551 1550 1551 1551 1551 1551 1552 1553 1554 1554 1554 1555 1555 1555 1555 1555 1555 1555 1555 1554 1554 1554 1553 1552 1551 1550 1549 1549 1548 1547
1551 1551 1550 1550 1550 1550 1549 1549 1549 1549 1549 1549 1549 1549 1549 1549 1549 1549 1549 1550 1550 1551 1551 1552 1553 1553 1553 1553 1554 1554 1553 1553 1553 1553 1552 1551 1551 1550 1549 1548 1547 1546 1545
1550 1550 1550 1549 1549 1549 1549 1548 1548 1548 1548 1548 1548 1548 1548 1548 1548 1548 1548 1548 1548 1549 1549 1549 1550 1551 1551 1552 1552 1552 1552 1552 1552 1551 1551 1550 1550 1549 1548 1546 1546 1545 1544
1550 1550 1549 1549 1549 1549 1548 1548 1548 1548 1548 1548 1548 1547 1547 1547 1546 1546 1546 1546 1547 1547 1547 1547 1548 1549 1549 1550 1551 1551 1551 1551 1551 1550 1550 1549 1549 1548 1547 1545 1545 1544 1542
1550 1550 1549 1549 1549 1549 1548 1548 1548 1548 1547 1547 1547 1547 1546 1546 1545 1545 1545 1545 1545 1545 1545 1546 1546 1547 1548 1549 1549 1549 1549 1550 1550 1550 1549 1549 1548 1547 1546 1545 1544 1543 1542
1550 1550 1549 1549 1549 1549 1549 1549 1548 1548 1548 1547 1547 1547 1546 1546 1545 1545 1544 1544 1544 1544 1545 1545 1546 1546 1547 1548 1548 1549 1549 1549 1549 1549 1549 1548 1547 1546 1546 1545 1544 1542 1541
1550 1550 1550 1549 1549 1549 1549 1549 1549 1548 1548 1548 1547 1547 1547 1546 1545 1545 1545 1544 1544 1544 1544 1544 1545 1546 1546 1547 1548 1548 1548 1548 1548 1549 1549 1548 1547 1546 1546 1545 1543 1542 1541
1550 1550 1549 1549 1549 1549 1549 1549 1549 1549 1548 1548 1547 1547 1547 1546 1546 1545 1545 1545 1545 1545 1545 1545 1545 1545 1546 1546 1547 1547 1547 1547 1547 1548 1548 1547 1547 1546 1546 1545 1544 1542 1541
1550 1550 1550 1550 1550 1550 1550 1550 1550 1549 1549 1548 1548 1547 1547 1546 1546 1546 1546 1545 1545 1546 1546 1546 1546 1546 1546 1546 1547 1547 1547 1547 1547 1547 1547 1547 1546 1546 1545 1544 1544 1543 1541
1550 1550 1550 1550 1550 1550 1550 1550 1550 1549 1549 1549 1548 1547 1547 1547 1547 1546 1546 1546 1546 1547 1547 1547 1547 1546 1546 1546 1547 1547 1547 1547 1546 1546 1546 1546 1546 1545 1544 1544 1543 1542 1541
1549 1549 1549 1549 1549 1549 1550 1550 1550 1549 1549 1549 1548 1548 1547 1547 1547 1547 1546 1546 1547 1547 1547 1547 1547 1547 1547 1547 1547 1546 1546 1546 1546 1546 1545 1545 1545 1544 1544 1543 1543 1542 1541